Zaragoza, Spain

1:09 PM CEST on July 26, 2016 (GMT +0200)
Zaragoza

Weather History for LEZG - October, 2012

Change the Weather History Date:

Sunday, October 28, 2012

  Actual Average Record
Temperature  
Mean Temperature 47 °F -  
Max Temperature 53 °F 57 °F 82 °F (2006)
Min Temperature 41 °F 42 °F 39 °F (2007)
Degree Days  
Heating Degree Days 18    
Moisture  
Dew Point 33 °F    
Average Humidity 62    
Maximum Humidity 81    
Minimum Humidity 38    
Precipitation  
Precipitation 0.00 in 0.05 in - ()
Sea Level Pressure  
Sea Level Pressure 30.03 in    
Wind  
Wind Speed 22 mph ()    
Max Wind Speed 32 mph    
Max Gust Speed 43 mph    
Visibility 6.9 miles    
Events      
Averages and records for this station are not official NWS values.
T = Trace of Precipitation, MM = Missing Value Source: Averaged Metar Reports

Daily Weather History Graph

Daily Weather History Graph

Search for Another Location

Airport or City:

Trip Planner

Search our weather history database for the weather conditions in past years. The results will help you decide how hot, cold, wet, or windy it might be!

Date:

Astronomy

Oct. 28, 2012 Rise Set
Actual Time 7:31 AM CET 6:03 PM CET
Civil Twilight 7:02 AM CET 6:32 PM CET
Nautical Twilight 6:30 AM CET 7:04 PM CET
Astronomical Twilight 5:58 AM CET 7:36 PM CET
Moon 5:13 PM CET (10/28) 6:09 AM CET (10/28)
Length of Visible Light 11h 29m
Length of Day
10h 31m
Waxing Gibbous, 98% of the Moon is Illuminated
Oct 28
Waxing Gibbous
Oct 29
Full
Nov 7
Last Quarter
Nov 13
New
Nov 20
First Quarter

Hourly Weather History & Observations

Time (CET) Temp. Windchill Dew Point Humidity Pressure Visibility Wind Dir Wind Speed Gust Speed Precip Events Conditions
12:00 AM 42.8 °F 32.5 °F 33.8 °F 70% 29.92 in 6.2 mi NW 28.8 mph 42.6 mph N/A   Partly Cloudy
12:30 AM 42.8 °F 32.3 °F 33.8 °F 70% 29.95 in 6.2 mi NW 29.9 mph 41.4 mph N/A   Partly Cloudy
1:00 AM 42.8 °F 32.5 °F 33.8 °F 70% 29.95 in 6.2 mi NW 28.8 mph - N/A   Partly Cloudy
1:30 AM 42.8 °F 32.9 °F 33.8 °F 70% 29.98 in 6.2 mi NW 26.5 mph 38.0 mph N/A   Partly Cloudy
2:00 AM 43 °F - 29 °F 47% 29.99 in 9 mi WNW 27.6 mph - -   Clear
2:00 AM 41.0 °F 30.2 °F 32.0 °F 70% 29.98 in - WNW 27.6 mph - N/A   Clear
2:30 AM 41.0 °F 30.7 °F 30.2 °F 65% 29.98 in - WNW 25.3 mph - N/A   Clear
2:00 AM 41.0 °F 31.1 °F 30.2 °F 65% 30.01 in - WNW 23.0 mph - N/A   Clear
2:30 AM 41.0 °F 31.4 °F 30.2 °F 65% 30.01 in - WNW 21.9 mph - N/A   Clear
3:00 AM 41.0 °F 31.6 °F 28.4 °F 61% 30.01 in - WNW 20.7 mph - N/A   Clear
3:30 AM 41.0 °F 31.4 °F 30.2 °F 65% 30.01 in - WNW 21.9 mph - N/A   Clear
4:00 AM 41.0 °F 31.6 °F 30.2 °F 65% 29.98 in 6.2 mi WNW 20.7 mph - N/A   Partly Cloudy
4:30 AM 41.0 °F 31.6 °F 32.0 °F 70% 29.98 in 6.2 mi West 20.7 mph - N/A   Partly Cloudy
5:00 AM 41.0 °F 31.9 °F 33.8 °F 76% 29.98 in 6.2 mi West 19.6 mph - N/A   Partly Cloudy
5:30 AM 41.0 °F 32.5 °F 33.8 °F 76% 30.01 in 6.2 mi WNW 17.3 mph - N/A   Partly Cloudy
6:00 AM 41.0 °F 32.2 °F 33.8 °F 76% 30.01 in 6.2 mi WNW 18.4 mph - N/A   Partly Cloudy
6:30 AM 42.8 °F 34.8 °F 33.8 °F 70% 30.01 in 6.2 mi WNW 17.3 mph - N/A   Partly Cloudy
7:00 AM 43 °F - 34 °F 60% 30.05 in 9 mi West 15.0 mph - -   Scattered Clouds
7:00 AM 41.0 °F 32.8 °F 33.8 °F 76% 30.04 in 6.2 mi West 16.1 mph - N/A   Partly Cloudy
7:30 AM 41.0 °F 32.8 °F 33.8 °F 76% 30.04 in 6.2 mi West 16.1 mph - N/A   Partly Cloudy
8:00 AM 41.0 °F 32.2 °F 35.6 °F 81% 30.04 in 6.2 mi West 18.4 mph - N/A   Partly Cloudy
8:30 AM 42.8 °F 34.3 °F 33.8 °F 70% 30.06 in 6.2 mi WNW 19.6 mph - N/A   Partly Cloudy
9:00 AM 44.6 °F 37.2 °F 35.6 °F 71% 30.06 in 6.2 mi West 17.3 mph 28.8 mph N/A   Partly Cloudy
9:30 AM 46.4 °F 39.2 °F 37.4 °F 71% 30.06 in 6.2 mi West 18.4 mph - N/A   Partly Cloudy
10:30 AM 48.2 °F - 32.0 °F 54% 30.06 in 6.2 mi WNW 21.9 mph 33.4 mph N/A   Partly Cloudy
11:00 AM 48.2 °F - 32.0 °F 54% 30.06 in 6.2 mi WNW 21.9 mph - N/A   Partly Cloudy
11:30 AM 48.2 °F - 33.8 °F 58% 30.09 in 6.2 mi WNW 25.3 mph - N/A   Partly Cloudy
12:00 PM 50.0 °F - 32.0 °F 50% 30.06 in 6.2 mi NW 24.2 mph - N/A   Partly Cloudy
12:30 PM 50.0 °F - 33.8 °F 54% 30.06 in 6.2 mi WNW 26.5 mph - N/A   Partly Cloudy
1:00 PM 50 °F - 33 °F 39% 30.06 in 19 mi WNW 24.2 mph - -   Partly Cloudy
1:00 PM 51.8 °F - 33.8 °F 50% 30.04 in 6.2 mi WNW 23.0 mph 35.7 mph N/A   Scattered Clouds
1:30 PM 51.8 °F - 33.8 °F 50% 30.04 in 6.2 mi WNW 26.5 mph 38.0 mph N/A   Scattered Clouds
2:00 PM 51.8 °F - 32.0 °F 47% 30.04 in 6.2 mi NW 27.6 mph - N/A   Scattered Clouds
2:30 PM 51.8 °F - 33.8 °F 50% 30.01 in 6.2 mi WNW 27.6 mph - N/A   Scattered Clouds
3:00 PM 51.8 °F - 32.0 °F 47% 30.01 in 6.2 mi WNW 29.9 mph - N/A   Scattered Clouds
3:30 PM 51.8 °F - 32.0 °F 47% 30.01 in 6.2 mi NW 32.2 mph - N/A   Scattered Clouds
4:30 PM 50.0 °F - 33.8 °F 54% 30.01 in 6.2 mi NW 28.8 mph - N/A   Scattered Clouds
5:00 PM 50.0 °F - 32.0 °F 50% 30.01 in 6.2 mi NW 27.6 mph - N/A   Partly Cloudy
5:30 PM 48.2 °F - 33.8 °F 58% 30.04 in 6.2 mi NW 27.6 mph - N/A   Partly Cloudy
6:00 PM 48.2 °F - 33.8 °F 58% 30.04 in 6.2 mi WNW 21.9 mph 34.5 mph N/A   Partly Cloudy
6:30 PM 46.4 °F 38.5 °F 33.8 °F 62% 30.04 in 6.2 mi WNW 21.9 mph - N/A   Partly Cloudy
7:00 PM 48 °F - 30 °F 38% 30.08 in 19 mi WNW 18.4 mph - -   Scattered Clouds
7:00 PM 46.4 °F 39.5 °F 33.8 °F 62% 30.06 in 6.2 mi WNW 17.3 mph - N/A   Partly Cloudy
7:30 PM 44.6 °F 36.6 °F 33.8 °F 66% 30.06 in 6.2 mi WNW 19.6 mph - N/A   Partly Cloudy
8:00 PM 44.6 °F 37.2 °F 33.8 °F 66% 30.06 in 6.2 mi West 17.3 mph - N/A   Partly Cloudy
8:30 PM 42.8 °F 36.2 °F 35.6 °F 76% 30.06 in 6.2 mi West 12.7 mph - N/A   Partly Cloudy
9:00 PM 44.6 °F 36.9 °F 35.6 °F 71% 30.06 in 6.2 mi West 18.4 mph - N/A   Partly Cloudy
9:30 PM 44.6 °F 36.4 °F 33.8 °F 66% 30.06 in 6.2 mi West 20.7 mph - N/A   Partly Cloudy
10:00 PM 44.6 °F 36.1 °F 33.8 °F 66% 30.06 in - WNW 21.9 mph - N/A   Clear
10:30 PM 44.6 °F 36.1 °F 33.8 °F 66% 30.06 in - WNW 21.9 mph - N/A   Clear